Home > Weather > Herzogenrath > Past weeks

Flag for Germany Weather for the Past 2 Weeks in Herzogenrath, North Rhine-Westphalia, Germany

Now
36 °F

Drizzle. Low clouds.


Feels Like: 36 °F
Forecast: 27 / 35 °F
Wind: 2 mph from West

Location: Maastricht Airport Zuid Limburg

Current Time: Feb 14, 2016 at 10:08:24 AM

Latest Report: Feb 14, 2016 at 9:00 AM


Visibility: 2 mi

Pressure: 29.15 "Hg

Humidity: 98%

Dew point: 35 °F

Location of HerzogenrathLocation

Historic Weather in Herzogenrath — Graph

°F

Herzogenrath Temperature Yesterday

Maximum temperature yesterday: 38 °F (at 1:00 PM)
Minimum temperature yesterday: 29 °F (at 8:00 AM)
Average temperature yesterday: 35 °F

High & Low Weather Summary for the Past Weeks

 TemperatureHumidityPressure
High53 °F (Feb 1, 7:00 PM)100% (Feb 14, 3:00 AM)30.31 "Hg (Feb 14, 3:00 AM)
Low29 °F (Feb 13, 8:00 AM)60% (Feb 3, 2:00 PM)28.82 "Hg (Feb 9, 3:00 PM)
Average43 °F84%29.66 "Hg
* Reported Jan 30 3:00 PM — Feb 14 8:00 AM, Herzogenrath, Weather by CustomWeather, © 2016

Note: Actual official high and low records may vary slightly from our data, if they occured in-between our weather recording intervals... More about our weather records

Advertising

Herzogenrath Weather History for the Previous 24 Hours

 ConditionsComfort  
Time TempWeatherWind HumidityBarometerVisibility
8:00 AM
Sun, Feb 14
36 °FDrizzle. Low clouds.3 mph97%29.12 "Hg2 mi
7:00 AM36 °FDrizzle. Low clouds.2 mph98%29.09 "Hg2 mi
6:00 AM36 °FLight rain. Low clouds.3 mph97%29.09 "Hg3 mi
5:00 AM37 °FRain. Low clouds.2 mph99%29.06 "Hg1 mi
4:00 AM37 °FDrizzle. Dense fog.2 mph100%29.03 "Hg0 mi
3:00 AM37 °FDense fog.2 mph100%29.03 "Hg0 mi
2:00 AM37 °FFog.1 mph98%29.03 "Hg1 mi
1:00 AM37 °FLow clouds.2 mph98%29.03 "Hg2 mi
9:00 PM
Sat, Feb 13
36 °FLow clouds.5 mph97%29.00 "Hg5 mi
8:00 PM37 °FDrizzle. Low clouds.6 mph94%29.00 "Hg4 mi
7:00 PM37 °FDrizzle. Low clouds.7 mph94%29.03 "Hg5 mi
6:00 PM37 °FRain. Overcast.7 mph94%29.03 "Hg3 mi
5:00 PM37 °FLight rain. Overcast.6 mph95%29.06 "Hg4 mi
4:00 PM38 °FLight rain. Overcast.6 mph91%29.09 "Hg6 mi
3:00 PM38 °FRain. Overcast.6 mph90%29.09 "Hg7 mi
2:00 PM38 °FOvercast.6 mph86%29.12 "Hg7 mi
1:00 PM38 °FOvercast.5 mph83%29.18 "Hg8 mi
12:00 PM38 °FOvercast.5 mph83%29.21 "Hg6 mi
11:00 AM35 °FFog.2 mph86%29.23 "Hg6 mi
10:00 AM34 °FOvercast.3 mph86%29.23 "Hg4 mi
Weather by CustomWeather, © 2016

See weather overviewHow to use our weather pages